"Pseudo-MPEC" for GHN0878

Created 2025 May 12 3:31:02 UT using Find_Orb

Click here for an explanation of pseudo-MPECs

 
 Astrometry: 
     GHN0878*KB2025 05 07.13794 12 15 52.34 -14 05 41.7    ~574H 15.8 VqNEOCPX33
     GHN0878 KB2025 05 07.14007 12 15 58.58 -14 06 15.0    ~574H 16.7 VqNEOCPX33
     GHN0878 KB2025 05 07.14219 12 16 05.57 -14 06 47.9    ~574H 16.3 VqNEOCPX33

Station data:
(X33) OARU, Manaus  (S2.997378 W60.009610)  Brazil.  Observer G. Nobre.
   0.20-m f/5.0 reflector + CCD.

Orbital elements:  GHN0878
   Perihelion 2025 Apr 13.21242 +/- 32.8 TT =  5:05:53 (JD 2460778.71242)
Epoch 2025 May  7.0 TT = JDT 2460802.5   Earth MOID: 0.0035   Ma: 0.0276
M  14.20625402 +/- 33               (J2000 ecliptic)             AutoNEOCP
n   0.59721318 +/- 0.355            Peri.  324.19638 +/- 60
a   1.39652846 +/- 0.554            Node   235.31794 +/- 80
e   0.2885809 +/- 0.172             Incl.    0.74233 +/- 2.4
P   1.650/602.788d         H 24.49  G  0.15   U 12.0  SR
q 0.99351700 +/- 0.23    Q 1.79953992 +/- 1.5
From 3 observations 2025 May 7 (6.1 min); mean residual 1".88
Residuals in arcseconds: 
250507 X33  1.9+  .03+    250507 X33  3.8-  .07-    250507 X33  1.8+  .03+    

Ephemerides (geocentric):
Date (UTC) HH   RA             Dec           delta  r     elong  mag " sig PA
---- --------  ------------   ------------  ------ ------ -----  --- --------
2025 05 12 04  15 43 37.991   -22 44 00.64  .01840 1.0284 172.0 16.4  53d  97
2025 05 12 05  15 44 34.257   -22 44 06.80  .01849 1.0285 171.8 16.5  53d  97
2025 05 12 06  15 45 29.953   -22 44 11.66  .01859 1.0285 171.7 16.5  53d  97
2025 05 12 07  15 46 25.087   -22 44 15.27  .01868 1.0286 171.5 16.5  53d  97
2025 05 12 08  15 47 19.664   -22 44 17.65  .01878 1.0287 171.4 16.5  53d  97
2025 05 12 09  15 48 13.692   -22 44 18.84  .01887 1.0288 171.3 16.5  53d  97
2025 05 12 10  15 49 07.176   -22 44 18.89  .01897 1.0289 171.1 16.5  53d  97
2025 05 12 11  15 50 00.123   -22 44 17.81  .01906 1.0290 171.0 16.6  53d  97
2025 05 12 12  15 50 52.539   -22 44 15.65  .01916 1.0291 170.8 16.6  53d  97
2025 05 12 13  15 51 44.431   -22 44 12.44  .01925 1.0292 170.7 16.6  53d  97
2025 05 12 14  15 52 35.805   -22 44 08.21  .01935 1.0293 170.6 16.6  53d  97
2025 05 12 15  15 53 26.667   -22 44 02.99  .01945 1.0294 170.4 16.6  53d  97
2025 05 12 16  15 54 17.023   -22 43 56.80  .01954 1.0295 170.3 16.6  53d  97
2025 05 12 17  15 55 06.878   -22 43 49.68  .01964 1.0296 170.2 16.7  53d  97
2025 05 12 18  15 55 56.240   -22 43 41.66  .01974 1.0297 170.0 16.7  53d  97
2025 05 12 19  15 56 45.113   -22 43 32.77  .01983 1.0298 169.9 16.7  53d  97
2025 05 12 20  15 57 33.504   -22 43 23.02  .01993 1.0299 169.8 16.7  53d  97
2025 05 12 21  15 58 21.418   -22 43 12.45  .02003 1.0300 169.7 16.7  53d  97
2025 05 12 22  15 59 08.861   -22 43 01.09  .02013 1.0301 169.5 16.7  53d  97
2025 05 12 23  15 59 55.839   -22 42 48.95  .02023 1.0302 169.4 16.7  53d  97
2025 05 13 00  16 00 42.357   -22 42 36.06  .02032 1.0303 169.3 16.8  53d  97
2025 05 13 01  16 01 28.421   -22 42 22.45  .02042 1.0304 169.2 16.8  53d  97
2025 05 13 02  16 02 14.035   -22 42 08.13  .02052 1.0305 169.0 16.8  53d  97
2025 05 13 03  16 02 59.206   -22 41 53.14  .02062 1.0306 168.9 16.8  53d  97
2025 05 13 04  16 03 43.939   -22 41 37.48  .02072 1.0307 168.8 16.8  53d  97
2025 05 13 05  16 04 28.239   -22 41 21.19  .02082 1.0308 168.7 16.8  53d  97
2025 05 13 06  16 05 12.111   -22 41 04.29  .02092 1.0309 168.6 16.9  53d  97
2025 05 13 07  16 05 55.560   -22 40 46.78  .02102 1.0310 168.4 16.9  53d  97
2025 05 13 08  16 06 38.591   -22 40 28.70  .02112 1.0311 168.3 16.9  53d  97
2025 05 13 09  16 07 21.210   -22 40 10.06  .02122 1.0312 168.2 16.9  53d  97
2025 05 13 10  16 08 03.420   -22 39 50.89  .02132 1.0313 168.1 16.9  53d  97
2025 05 13 11  16 08 45.228   -22 39 31.19  .02142 1.0314 168.0 16.9  53d  97
2025 05 13 12  16 09 26.638   -22 39 10.98  .02152 1.0315 167.9 16.9  53d  97
2025 05 13 13  16 10 07.654   -22 38 50.29  .02162 1.0316 167.8 17.0  53d  97
2025 05 13 14  16 10 48.281   -22 38 29.13  .02172 1.0317 167.7 17.0  53d  97
2025 05 13 15  16 11 28.525   -22 38 07.52  .02182 1.0318 167.6 17.0  53d  97
2025 05 13 16  16 12 08.388   -22 37 45.46  .02192 1.0319 167.5 17.0  53d  97
2025 05 13 17  16 12 47.877   -22 37 22.98  .02203 1.0320 167.4 17.0  53d  97
2025 05 13 18  16 13 26.995   -22 37 00.10  .02213 1.0321 167.2 17.0  53d  97
2025 05 13 19  16 14 05.747   -22 36 36.82  .02223 1.0322 167.1 17.0  54d  97
2025 05 13 20  16 14 44.137   -22 36 13.16  .02233 1.0323 167.0 17.1  54d  97
2025 05 13 21  16 15 22.169   -22 35 49.13  .02243 1.0324 166.9 17.1  54d  97
2025 05 13 22  16 15 59.848   -22 35 24.75  .02254 1.0325 166.9 17.1  54d  97
2025 05 13 23  16 16 37.177   -22 35 00.03  .02264 1.0326 166.8 17.1  54d  97
2025 05 14 00  16 17 14.162   -22 34 34.98  .02274 1.0327 166.7 17.1  54d  97
2025 05 14 01  16 17 50.805   -22 34 09.62  .02284 1.0328 166.6 17.1  54d  97
2025 05 14 02  16 18 27.112   -22 33 43.95  .02295 1.0329 166.5 17.1  54d  97
2025 05 14 03  16 19 03.085   -22 33 18.00  .02305 1.0330 166.4 17.1  54d  97